Oakes, ND

12:31 PM CST on November 21, 2019 (GMT -0600)
Oakes

Weather History for K2D5 - September, 2019

Change the Weather History Date:

Monday, September 23, 2019

  Actual Average (KP67) Record (KP67)
Temperature  
Mean Temperature 60 °F -  
Max Temperature 77 °F 67 °F 71 °F (1997)
Min Temperature 44 °F 43 °F 37 °F (1997)
Degree Days  
Heating Degree Days 4    
Growing Degree Days 10 (Base 50)    
Moisture  
Dew Point 50 °F    
Average Humidity 74    
Maximum Humidity 100    
Minimum Humidity 34    
Precipitation  
Precipitation 0.00 in - - ()
Sea Level Pressure  
Sea Level Pressure 29.91 in    
Wind  
Wind Speed 7 mph (SSW)    
Max Wind Speed 14 mph    
Max Gust Speed 18 mph    
Visibility 10 miles    
Events      
Averages and records for this station are not official NWS values.
T = Trace of Precipitation, MM = Missing Value Source: NWS Daily Summary

Daily Weather History Graph

Daily Weather History Graph

Search for Another Location

Airport or City:

Astronomy

Sep. 23, 2019 Rise Set
Actual Time 7:20 AM CDT 7:28 PM CDT
Civil Twilight 6:50 AM CDT 7:58 PM CDT
Nautical Twilight 6:15 AM CDT 8:33 PM CDT
Astronomical Twilight 5:39 AM CDT 9:09 PM CDT
Moon 12:43 AM CDT (9/23) 4:44 PM CDT (9/23)
Length of Visible Light 13h 07m
Length of Day
12h 08m
Waning Crescent, 33% of the Moon is Illuminated
Sep 23
Waning Crescent
Sep 28
New
Oct 5
First Quarter
Oct 13
Full
Oct 21
Last Quarter

Hourly Weather History & Observations

Time (CDT) Temp. Windchill Dew Point Humidity Pressure Visibility Wind Dir Wind Speed Gust Speed Precip Events Conditions
12:15 AM 53.6 °F - 46.4 °F 77% 29.91 in 10.0 mi WSW 6.9 mph - N/A   Clear
12:35 AM 53.6 °F - 46.4 °F 77% 29.92 in 10.0 mi WSW 3.5 mph - N/A   Clear
12:55 AM 51.8 °F - 46.4 °F 82% 29.92 in 10.0 mi SW 4.6 mph - N/A   Clear
1:15 AM 51.8 °F - 48.2 °F 88% 29.92 in 10.0 mi SW 5.8 mph - N/A   Clear
1:35 AM 51.8 °F - 48.2 °F 88% 29.91 in 10.0 mi SW 6.9 mph - N/A   Clear
1:55 AM 51.8 °F - 48.2 °F 88% 29.91 in 10.0 mi WSW 6.9 mph - N/A   Clear
2:15 AM 53.6 °F - 48.2 °F 82% 29.92 in 10.0 mi West 6.9 mph - N/A   Clear
2:35 AM 51.8 °F - 48.2 °F 88% 29.92 in 10.0 mi West 5.8 mph - N/A   Clear
2:55 AM 51.8 °F - 48.2 °F 88% 29.92 in 10.0 mi WSW 3.5 mph - N/A   Clear
3:15 AM 51.8 °F - 48.2 °F 88% 29.92 in 10.0 mi SW 4.6 mph - N/A   Clear
3:35 AM 51.8 °F - 48.2 °F 88% 29.92 in 10.0 mi SW 4.6 mph - N/A   Clear
3:55 AM 51.8 °F - 48.2 °F 88% 29.92 in 10.0 mi WSW 4.6 mph - N/A   Clear
4:15 AM 50.0 °F - 50.0 °F 100% 29.92 in 10.0 mi WSW 3.5 mph - N/A   Clear
4:35 AM 50.0 °F - 50.0 °F 100% 29.93 in 10.0 mi SW 5.8 mph - N/A   Clear
4:55 AM 50.0 °F - 50.0 °F 100% 29.93 in 10.0 mi SW 4.6 mph - N/A   Clear
5:15 AM 48.2 °F - 48.2 °F 100% 29.93 in 10.0 mi South 4.6 mph - N/A   Clear
5:35 AM 48.2 °F - 48.2 °F 100% 29.94 in 10.0 mi SSW 6.9 mph - N/A   Clear
5:55 AM 48.2 °F - 48.2 °F 100% 29.93 in 10.0 mi SSW 5.8 mph - N/A   Clear
6:15 AM 46.4 °F 42.9 °F 46.4 °F 100% 29.93 in 10.0 mi South 6.9 mph - N/A   Clear
6:35 AM 44.6 °F 42.2 °F 44.6 °F 100% 29.93 in 10.0 mi South 4.6 mph - N/A   Clear
6:55 AM - - - N/A% 29.94 in 10.0 mi South 5.8 mph - N/A   Clear
7:15 AM 44.6 °F 40.7 °F 44.6 °F 100% 29.94 in 9.0 mi South 6.9 mph - N/A   Clear
7:35 AM 44.6 °F 40.7 °F 44.6 °F 100% 29.94 in 9.0 mi South 6.9 mph - N/A   Clear
7:55 AM 46.4 °F 42.9 °F 46.4 °F 100% 29.94 in 10.0 mi South 6.9 mph - N/A   Clear
8:15 AM 48.2 °F - 48.2 °F 100% 29.95 in 10.0 mi South 5.8 mph - N/A   Clear
8:35 AM 50.0 °F - 50.0 °F 100% 29.95 in 10.0 mi South 8.1 mph - N/A   Clear
8:55 AM 51.8 °F - 51.8 °F 100% 29.95 in 10.0 mi South 8.1 mph - N/A   Clear
9:15 AM 53.6 °F - 53.6 °F 100% 29.96 in 10.0 mi SSW 9.2 mph - N/A   Clear
9:35 AM 53.6 °F - 51.8 °F 94% 29.96 in 10.0 mi SSW 8.1 mph - N/A   Clear
9:55 AM 55.4 °F - 53.6 °F 94% 29.96 in 10.0 mi SSW 9.2 mph - N/A   Clear
10:15 AM 57.2 °F - 53.6 °F 88% 29.96 in 10.0 mi SSW 6.9 mph - N/A   Clear
10:35 AM 60.8 °F - 53.6 °F 77% 29.96 in 10.0 mi South 9.2 mph - N/A   Clear
10:55 AM 62.6 °F - 53.6 °F 72% 29.96 in 10.0 mi SSW 8.1 mph - N/A   Clear
11:15 AM 64.4 °F - 53.6 °F 68% 29.96 in 10.0 mi South 6.9 mph - N/A   Clear
11:35 AM 66.2 °F - 53.6 °F 64% 29.96 in 10.0 mi South 9.2 mph - N/A   Clear
11:55 AM 68.0 °F - 53.6 °F 60% 29.96 in 10.0 mi SSW 9.2 mph - N/A   Clear
12:15 PM 69.8 °F - 53.6 °F 56% 29.96 in 10.0 mi South 10.4 mph - N/A   Clear
12:35 PM 71.6 °F - 51.8 °F 50% 29.95 in 10.0 mi SSW 10.4 mph - N/A   Clear
12:55 PM 71.6 °F - 50.0 °F 46% 29.95 in 10.0 mi SSW 10.4 mph - N/A   Clear
1:15 PM 73.4 °F - 48.2 °F 41% 29.94 in 10.0 mi SSW 10.4 mph - N/A   Clear
1:35 PM 73.4 °F - 50.0 °F 44% 29.93 in 10.0 mi SSW 11.5 mph - N/A   Clear
1:55 PM 73.4 °F - 50.0 °F 44% 29.92 in 10.0 mi South 8.1 mph 15.0 mph N/A   Clear
2:15 PM 73.4 °F - 51.8 °F 47% 29.92 in 10.0 mi SSW 10.4 mph - N/A   Clear
2:35 PM 75.2 °F - 48.2 °F 38% 29.92 in 10.0 mi South 13.8 mph - N/A   Clear
2:55 PM 75.2 °F - 48.2 °F 38% 29.91 in 9.0 mi SW 11.5 mph - N/A   Clear
3:15 PM 75.2 °F - 48.2 °F 38% 29.90 in 9.0 mi SW 9.2 mph 17.3 mph N/A   Clear
3:35 PM 77.0 °F - 48.2 °F 36% 29.90 in 10.0 mi SW 11.5 mph - N/A   Clear
3:55 PM 77.0 °F - 48.2 °F 36% 29.89 in 10.0 mi SSW 12.7 mph - N/A   Clear
4:15 PM 77.0 °F - 46.4 °F 34% 29.89 in 10.0 mi SW 13.8 mph - N/A   Clear
4:35 PM 77.0 °F - 46.4 °F 34% 29.88 in 10.0 mi SW 11.5 mph - N/A   Clear
4:55 PM 77.0 °F - 46.4 °F 34% 29.88 in 10.0 mi SW 11.5 mph - N/A   Clear
5:15 PM 77.0 °F - 46.4 °F 34% 29.87 in 10.0 mi SW 10.4 mph 18.4 mph N/A   Clear
5:35 PM 75.2 °F - 46.4 °F 36% 29.87 in 10.0 mi SSW 12.7 mph - N/A   Clear
5:55 PM 75.2 °F - 48.2 °F 38% 29.87 in 10.0 mi SSW 9.2 mph - N/A   Clear
6:15 PM 73.4 °F - 51.8 °F 47% 29.86 in 8.0 mi SSW 8.1 mph - N/A   Clear
6:35 PM 71.6 °F - 51.8 °F 50% 29.86 in 8.0 mi South 6.9 mph - N/A   Clear
6:55 PM 68.0 °F - 51.8 °F 56% 29.86 in 10.0 mi SSW 8.1 mph - N/A   Clear
7:15 PM 66.2 °F - 51.8 °F 60% 29.86 in 10.0 mi South 9.2 mph - N/A   Clear
7:35 PM 64.4 °F - 51.8 °F 64% 29.86 in 10.0 mi South 9.2 mph - N/A   Clear
7:55 PM 64.4 °F - 51.8 °F 64% 29.86 in 10.0 mi South 8.1 mph - N/A   Clear
8:15 PM 62.6 °F - 51.8 °F 68% 29.86 in 9.0 mi South 9.2 mph - N/A   Clear
8:35 PM 62.6 °F - 51.8 °F 68% 29.85 in 10.0 mi South 8.1 mph - N/A   Clear
8:55 PM 62.6 °F - 53.6 °F 72% 29.85 in 10.0 mi South 8.1 mph - N/A   Clear
9:15 PM 59.0 °F - 53.6 °F 82% 29.85 in 10.0 mi South 6.9 mph - N/A   Clear
9:35 PM 57.2 °F - 53.6 °F 88% 29.84 in 10.0 mi South 6.9 mph - N/A   Clear
9:55 PM 55.4 °F - 53.6 °F 94% 29.84 in 10.0 mi South 8.1 mph - N/A   Clear
10:15 PM 55.4 °F - 55.4 °F 100% 29.84 in 9.0 mi South 8.1 mph - N/A   Clear
10:35 PM 55.4 °F - 55.4 °F 100% 29.84 in 7.0 mi South 9.2 mph - N/A   Clear
10:55 PM 55.4 °F - 55.4 °F 100% 29.84 in 10.0 mi South 5.8 mph - N/A   Clear
11:15 PM 59.0 °F - 57.2 °F 94% 29.83 in 10.0 mi South 10.4 mph - N/A   Clear
11:35 PM 59.0 °F - 57.2 °F 94% 29.83 in 10.0 mi SSW 10.4 mph - N/A   Clear
11:55 PM 59.0 °F - 57.2 °F 94% 29.82 in 10.0 mi SSW 9.2 mph - N/A   Clear